Location: Bullenkuhlen
(53.7689°N, 9.7495°E)
Time: 01:00:53
(UTC+00:00)

Cosmos 1825 - Pass Details

Date: 09 April 2020
Orbit: 502 x 509 km, 82.5° (Epoch: 30 May)

Event Time Altitude Azimuth Distance (km) Brightness Sun altitude
Rises 19:58:57 0° 354° (N) 2,633 6.5 -14.9°
Reaches altitude 10° 20:01:14 10° 4° (N) 1,741 5.3 -15.2°
Maximum altitude 20:04:45 34° 71° (ENE) 859 3.0 -15.6°
Enters shadow 20:05:43 29° 103° (ESE) 955 3.0 -15.7°
